Time,TemperatureF,DewpointF,PressureIn,WindDirection,WindDirectionDegrees,WindSpeedMPH,WindSpeedGustMPH,Humidity,HourlyPrecipIn,Conditions,Clouds,dailyrainin,SolarRadiationWatts/m^2,SoftwareType,DateUTC
2013-03-10 00:00:00,57.8,38.8,29.91,SE,137,5.0,6.0,49,0.00,CLR,,0.00,0.0,WeatherDisplay:10.37,2013-03-10 06:00:00,
2013-03-10 00:10:00,58.2,38.6,29.91,SE,133,3.0,7.0,48,0.00,CLR,,0.00,0.0,WeatherDisplay:10.37,2013-03-10 06:10:00,
2013-03-10 00:20:00,58.3,39.2,29.90,SE,131,5.0,7.0,49,0.00,CLR,,0.00,0.0,WeatherDisplay:10.37,2013-03-10 06:20:00,
2013-03-10 00:30:00,58.4,39.3,29.90,SE,128,5.0,9.0,49,0.00,CLR,,0.00,0.0,WeatherDisplay:10.37,2013-03-10 06:30:00,
2013-03-10 00:40:00,58.5,39.4,29.90,SE,139,6.0,8.0,49,0.00,SCT,,0.00,0.0,WeatherDisplay:10.37,2013-03-10 06:40:00,
2013-03-10 00:50:00,58.6,40.0,29.90,SE,138,5.0,8.0,50,0.00,BKN,,0.00,0.0,WeatherDisplay:10.37,2013-03-10 06:50:00,
2013-03-10 01:00:00,58.8,39.7,29.91,SSE,147,6.0,9.0,49,0.00,BKN,,0.00,0.0,WeatherDisplay:10.37,2013-03-10 07:00:00,
2013-03-10 01:10:00,58.9,40.3,29.91,SSE,153,6.0,12.0,50,0.00,SCT,,0.00,0.0,WeatherDisplay:10.37,2013-03-10 07:10:00,
2013-03-10 01:20:00,58.9,40.3,29.91,SSE,159,5.0,12.0,50,0.00,SCT,,0.00,0.0,WeatherDisplay:10.37,2013-03-10 07:20:00,
2013-03-10 01:30:00,58.4,40.8,29.90,SSE,166,5.0,8.0,52,0.00,SCT,,0.00,0.0,WeatherDisplay:10.37,2013-03-10 07:30:00,
2013-03-10 01:40:00,58.1,41.0,29.90,SSE,158,6.0,10.0,53,0.00,SCT,,0.00,0.0,WeatherDisplay:10.37,2013-03-10 07:40:00,
2013-03-10 01:50:00,58.6,41.0,29.90,South,172,7.0,12.0,52,0.00,CLR,,0.00,0.0,WeatherDisplay:10.37,2013-03-10 07:50:00,
2013-03-10 03:00:00,58.4,41.3,29.90,SSE,160,7.0,12.0,53,0.00,CLR,,0.00,0.0,WeatherDisplay:10.37,2013-03-10 08:00:00,
2013-03-10 03:10:00,58.8,41.7,29.89,SSE,162,6.0,12.0,53,0.00,CLR,,0.00,0.0,WeatherDisplay:10.37,2013-03-10 08:10:00,
2013-03-10 03:20:00,59.1,42.0,29.88,SSE,159,7.0,12.0,53,0.00,SCT,,0.00,0.0,WeatherDisplay:10.37,2013-03-10 08:20:00,
2013-03-10 03:30:00,59.4,42.3,29.88,SSE,151,8.0,13.0,53,0.00,SCT,,0.00,0.0,WeatherDisplay:10.37,2013-03-10 08:30:00,
2013-03-10 03:40:00,59.6,42.5,29.88,SSE,153,7.0,12.0,53,0.00,FEW,,0.00,0.0,WeatherDisplay:10.37,2013-03-10 08:40:00,
2013-03-10 03:50:00,59.6,42.9,29.88,SSE,147,7.0,13.0,54,0.00,FEW,,0.00,0.0,WeatherDisplay:10.37,2013-03-10 08:50:00,
2013-03-10 04:00:00,59.5,43.3,29.88,SSE,156,7.0,14.0,55,0.00,CLR,,0.00,0.0,WeatherDisplay:10.37,2013-03-10 09:00:00,
2013-03-10 04:10:00,59.7,43.0,29.86,SSE,152,8.0,14.0,54,0.00,CLR,,0.00,0.0,WeatherDisplay:10.37,2013-03-10 09:10:00,
2013-03-10 04:20:00,59.7,42.5,29.88,SSE,155,8.0,15.0,53,0.00,CLR,,0.00,0.0,WeatherDisplay:10.37,2013-03-10 09:20:00,
2013-03-10 04:30:00,59.6,42.5,29.87,SSE,154,7.0,14.0,53,0.00,CLR,,0.00,0.0,WeatherDisplay:10.37,2013-03-10 09:30:00,
2013-03-10 04:40:00,59.8,42.7,29.86,SSE,152,7.0,15.0,53,0.00,CLR,,0.00,0.0,WeatherDisplay:10.37,2013-03-10 09:40:00,
2013-03-10 04:50:00,59.8,43.1,29.86,SSE,159,6.0,15.0,54,0.00,CLR,,0.00,0.0,WeatherDisplay:10.37,2013-03-10 09:50:00,
2013-03-10 05:00:00,60.0,43.8,29.86,SSE,153,8.0,15.0,55,0.00,FEW,,0.00,0.0,WeatherDisplay:10.37,2013-03-10 10:00:00,
2013-03-10 05:10:00,60.2,44.0,29.85,SE,143,8.0,16.0,55,0.00,FEW,,0.00,0.0,WeatherDisplay:10.37,2013-03-10 10:10:00,
2013-03-10 05:20:00,60.4,43.7,29.85,SSE,150,8.0,16.0,54,0.00,FEW,,0.00,0.0,WeatherDisplay:10.37,2013-03-10 10:20:00,
2013-03-10 05:30:00,60.2,44.0,29.85,SSE,150,7.0,17.0,55,0.00,FEW,,0.00,0.0,WeatherDisplay:10.37,2013-03-10 10:30:00,
2013-03-10 05:40:00,60.2,44.0,29.85,SSE,167,8.0,17.0,55,0.00,CLR,,0.00,0.0,WeatherDisplay:10.37,2013-03-10 10:40:00,
2013-03-10 05:50:00,60.1,43.9,29.86,SSE,152,7.0,16.0,55,0.00,CLR,,0.00,0.0,WeatherDisplay:10.37,2013-03-10 10:50:00,
2013-03-10 06:00:00,59.7,44.0,29.86,SSE,154,8.0,12.0,56,0.00,FEW,,0.00,0.0,WeatherDisplay:10.37,2013-03-10 11:00:00,
2013-03-10 06:10:00,59.5,44.2,29.86,SSE,149,5.0,12.0,57,0.00,FEW,,0.00,0.0,WeatherDisplay:10.37,2013-03-10 11:10:00,
2013-03-10 06:20:00,59.5,44.2,29.85,SE,144,7.0,12.0,57,0.00,CLR,,0.00,0.0,WeatherDisplay:10.37,2013-03-10 11:20:00,
2013-03-10 06:30:00,59.5,43.8,29.86,SE,143,7.0,13.0,56,0.00,CLR,,0.00,0.0,WeatherDisplay:10.37,2013-03-10 11:30:00,
2013-03-10 06:40:00,59.4,43.7,29.86,SSE,164,7.0,13.0,56,0.00,CLR,,0.00,0.0,WeatherDisplay:10.37,2013-03-10 11:40:00,
2013-03-10 06:50:00,59.2,43.5,29.86,SSE,152,8.0,13.0,56,0.00,CLR,,0.00,0.0,WeatherDisplay:10.37,2013-03-10 11:50:00,
2013-03-10 07:00:00,59.2,43.0,29.87,SE,146,8.0,13.0,55,0.00,SCT,,0.00,0.0,WeatherDisplay:10.37,2013-03-10 12:00:00,
2013-03-10 07:10:00,59.1,43.0,29.86,SE,143,8.0,14.0,55,0.00,SCT,,0.00,0.0,WeatherDisplay:10.37,2013-03-10 12:10:00,
2013-03-10 07:20:00,59.1,42.9,29.86,SSE,150,9.0,15.0,55,0.00,FEW,,0.00,0.0,WeatherDisplay:10.37,2013-03-10 12:20:00,
2013-03-10 07:30:00,59.1,42.9,29.86,SE,146,9.0,15.0,55,0.00,FEW,,0.00,0.0,WeatherDisplay:10.37,2013-03-10 12:30:00,
2013-03-10 07:40:00,59.2,43.0,29.86,SE,144,7.0,17.0,55,0.00,CLR,,0.00,0.0,WeatherDisplay:10.37,2013-03-10 12:40:00,
2013-03-10 07:50:00,59.2,43.0,29.85,SE,144,8.0,14.0,55,0.00,CLR,,0.00,0.0,WeatherDisplay:10.37,2013-03-10 12:50:00,
2013-03-10 08:00:00,59.3,43.1,29.85,SSE,147,10.0,16.0,55,0.00,CLR,,0.00,0.0,WeatherDisplay:10.37,2013-03-10 13:00:00,
2013-03-10 08:10:00,59.2,43.5,29.84,SE,140,8.0,15.0,56,0.00,CLR,,0.00,0.0,WeatherDisplay:10.37,2013-03-10 13:10:00,
2013-03-10 08:20:00,59.5,43.8,29.84,SSE,154,9.0,18.0,56,0.00,CLR,,0.00,0.0,WeatherDisplay:10.37,2013-03-10 13:20:00,
2013-03-10 08:30:00,59.4,44.2,29.84,SE,144,12.0,17.0,57,0.00,CLR,,0.00,0.0,WeatherDisplay:10.37,2013-03-10 13:30:00,
2013-03-10 08:40:00,59.3,44.5,29.84,SE,145,10.0,18.0,58,0.00,CLR,,0.00,0.0,WeatherDisplay:10.37,2013-03-10 13:40:00,
2013-03-10 08:50:00,59.4,45.1,29.83,SE,143,9.0,14.0,59,0.00,CLR,,0.00,0.0,WeatherDisplay:10.37,2013-03-10 13:50:00,
2013-03-10 09:00:00,59.6,45.7,29.84,SE,141,8.0,17.0,60,0.00,CLR,,0.00,0.0,WeatherDisplay:10.37,2013-03-10 14:00:00,
2013-03-10 09:10:00,60.0,46.1,29.84,SE,146,7.0,20.0,60,0.00,CLR,,0.00,0.0,WeatherDisplay:10.37,2013-03-10 14:10:00,
2013-03-10 09:20:00,60.4,46.0,29.84,SSE,155,8.0,20.0,59,0.00,CLR,,0.00,0.0,WeatherDisplay:10.37,2013-03-10 14:20:00,
2013-03-10 09:30:00,60.8,45.9,29.83,SE,141,12.0,16.0,58,0.00,CLR,,0.00,0.0,WeatherDisplay:10.37,2013-03-10 14:30:00,
2013-03-10 09:40:00,61.0,46.1,29.83,SSE,147,8.0,18.0,58,0.00,CLR,,0.00,0.0,WeatherDisplay:10.37,2013-03-10 14:40:00,
2013-03-10 09:50:00,61.2,46.3,29.84,SSE,151,7.0,17.0,58,0.00,FEW,,0.00,0.0,WeatherDisplay:10.37,2013-03-10 14:50:00,
2013-03-10 10:00:00,61.4,46.0,29.83,SE,140,9.0,18.0,57,0.00,FEW,,0.00,0.0,WeatherDisplay:10.37,2013-03-10 15:00:00,
2013-03-10 10:10:00,61.4,46.0,29.84,SE,145,12.0,20.0,57,0.00,FEW,,0.00,0.0,WeatherDisplay:10.37,2013-03-10 15:10:00,
2013-03-10 10:20:00,61.6,45.7,29.84,SSE,159,13.0,18.0,56,0.00,FEW,,0.00,0.0,WeatherDisplay:10.37,2013-03-10 15:20:00,
2013-03-10 10:30:00,61.9,45.5,29.83,SE,142,14.0,20.0,55,0.00,CLR,,0.00,0.0,WeatherDisplay:10.37,2013-03-10 15:30:00,
2013-03-10 10:40:00,62.1,46.3,29.83,SSE,148,9.0,22.0,56,0.00,CLR,,0.00,0.0,WeatherDisplay:10.37,2013-03-10 15:40:00,
2013-03-10 10:50:00,62.8,45.4,29.82,SE,146,12.0,18.0,53,0.00,CLR,,0.00,0.0,WeatherDisplay:10.37,2013-03-10 15:50:00,
2013-03-10 11:00:00,63.0,45.6,29.82,SE,144,9.0,18.0,53,0.00,CLR,,0.00,0.0,WeatherDisplay:10.37,2013-03-10 16:00:00,
2013-03-10 11:10:00,63.2,45.8,29.82,SSE,150,10.0,16.0,53,0.00,CLR,,0.00,0.0,WeatherDisplay:10.37,2013-03-10 16:10:00,
2013-03-10 11:20:00,63.2,46.3,29.80,SSE,153,9.0,17.0,54,0.00,CLR,,0.00,0.0,WeatherDisplay:10.37,2013-03-10 16:20:00,
2013-03-10 11:30:00,63.4,46.5,29.79,SSE,151,10.0,20.0,54,0.00,CLR,,0.00,0.0,WeatherDisplay:10.37,2013-03-10 16:30:00,
2013-03-10 11:40:00,63.9,46.9,29.79,SSE,156,9.0,20.0,54,0.00,CLR,,0.00,0.0,WeatherDisplay:10.37,2013-03-10 16:40:00,
2013-03-10 11:50:00,64.3,47.3,29.79,SSE,164,8.0,22.0,54,0.00,CLR,,0.00,0.0,WeatherDisplay:10.37,2013-03-10 16:50:00,
2013-03-10 12:00:00,64.6,47.6,29.79,SSE,159,9.0,20.0,54,0.00,CLR,,0.00,0.0,WeatherDisplay:10.37,2013-03-10 17:00:00,
2013-03-10 12:10:00,64.5,47.0,29.80,South,173,13.0,20.0,53,0.00,CLR,,0.00,0.0,WeatherDisplay:10.37,2013-03-10 17:10:00,
2013-03-10 12:20:00,64.3,47.3,29.79,South,183,13.0,21.0,54,0.00,CLR,,0.00,0.0,WeatherDisplay:10.37,2013-03-10 17:20:00,
2013-03-10 12:30:00,64.7,48.2,29.79,SSE,157,9.0,24.0,55,0.00,FEW,,0.00,0.0,WeatherDisplay:10.37,2013-03-10 17:30:00,
2013-03-10 12:40:00,65.7,49.0,29.78,SSE,159,9.0,23.0,55,0.00,FEW,,0.00,0.0,WeatherDisplay:10.37,2013-03-10 17:40:00,
2013-03-10 12:50:00,65.8,49.7,29.78,SSE,160,9.0,20.0,56,0.00,FEW,,0.00,0.0,WeatherDisplay:10.37,2013-03-10 17:50:00,
2013-03-10 13:00:00,65.6,49.5,29.77,SSE,156,13.0,20.0,56,0.00,FEW,,0.00,0.0,WeatherDisplay:10.37,2013-03-10 18:00:00,
2013-03-10 13:10:00,65.5,49.4,29.77,SE,144,12.0,20.0,56,0.00,FEW,,0.00,0.0,WeatherDisplay:10.37,2013-03-10 18:10:00,
2013-03-10 13:20:00,65.4,49.8,29.76,SE,142,12.0,26.0,57,0.00,FEW,,0.00,0.0,WeatherDisplay:10.37,2013-03-10 18:20:00,
2013-03-10 13:30:00,65.4,49.8,29.76,SSE,162,9.0,22.0,57,0.00,OVC,,0.00,0.0,WeatherDisplay:10.37,2013-03-10 18:30:00,
2013-03-10 13:40:00,65.2,49.6,29.75,SSE,150,7.0,17.0,57,0.00,OVC,,0.00,0.0,WeatherDisplay:10.37,2013-03-10 18:40:00,
2013-03-10 13:50:00,65.3,50.6,29.75,SSE,156,9.0,19.0,59,0.00,OVC,,0.00,0.0,WeatherDisplay:10.37,2013-03-10 18:50:00,
2013-03-10 14:00:00,65.4,51.2,29.74,SSE,162,10.0,18.0,60,0.00,OVC,,0.00,0.0,WeatherDisplay:10.37,2013-03-10 19:00:00,
2013-03-10 14:10:00,65.7,51.4,29.74,South,177,9.0,21.0,60,0.00,OVC,,0.00,0.0,WeatherDisplay:10.37,2013-03-10 19:10:00,
2013-03-10 14:20:00,65.6,52.7,29.74,South,177,14.0,23.0,63,0.00,OVC,,0.00,0.0,WeatherDisplay:10.37,2013-03-10 19:20:00,
2013-03-10 14:30:00,64.6,53.4,29.73,SSE,167,8.0,17.0,67,0.00,OVC,,0.00,0.0,WeatherDisplay:10.37,2013-03-10 19:30:00,
2013-03-10 14:40:00,62.7,53.5,29.73,SSE,162,8.0,20.0,72,0.00,OVC,,0.00,0.0,WeatherDisplay:10.37,2013-03-10 19:40:00,
2013-03-10 14:50:00,62.2,53.4,29.72,SSE,163,8.0,15.0,73,0.00,OVC,,0.00,0.0,WeatherDisplay:10.37,2013-03-10 19:50:00,
2013-03-10 15:00:00,62.6,53.4,29.72,SSE,153,8.0,20.0,72,0.00,OVC,,0.00,0.0,WeatherDisplay:10.37,2013-03-10 20:00:00,
2013-03-10 15:10:00,61.4,54.4,29.72,South,183,7.0,14.0,78,0.04,RA,,0.04,0.0,WeatherDisplay:10.37,2013-03-10 20:10:00,
2013-03-10 15:20:00,60.7,54.5,29.71,SSE,154,7.0,20.0,80,0.01,RA,,0.05,0.0,WeatherDisplay:10.37,2013-03-10 20:20:00,
2013-03-10 15:30:00,60.8,54.2,29.71,SSE,148,8.0,15.0,79,0.01,RA,,0.06,0.0,WeatherDisplay:10.37,2013-03-10 20:30:00,
2013-03-10 15:40:00,61.4,54.5,29.70,SSE,152,8.0,18.0,78,0.00,OVC,,0.06,0.0,WeatherDisplay:10.37,2013-03-10 20:40:00,
2013-03-10 15:50:00,61.7,54.1,29.71,SSE,154,7.0,15.0,76,0.00,OVC,,0.06,0.0,WeatherDisplay:10.37,2013-03-10 20:50:00,
2013-03-10 16:00:00,58.9,53.1,29.74,West,260,5.0,18.0,81,0.03,RA,,0.09,0.0,WeatherDisplay:10.37,2013-03-10 21:00:00,
2013-03-10 16:10:00,55.3,51.5,29.75,WNW,296,12.0,21.0,87,0.07,RA,,0.16,0.0,WeatherDisplay:10.37,2013-03-10 21:10:00,
2013-03-10 16:20:00,52.6,49.4,29.75,NW,317,8.0,18.0,89,0.01,RA,,0.17,0.0,WeatherDisplay:10.37,2013-03-10 21:20:00,
2013-03-10 16:30:00,51.8,49.3,29.75,NW,305,6.0,9.0,91,0.02,RA,,0.19,0.0,WeatherDisplay:10.37,2013-03-10 21:30:00,
2013-03-10 16:40:00,51.3,48.8,29.77,NW,314,7.0,12.0,91,0.02,RA,,0.21,0.0,WeatherDisplay:10.37,2013-03-10 21:40:00,
2013-03-10 16:50:00,51.2,49.0,29.77,NW,310,9.0,16.0,92,0.05,RA,,0.26,0.0,WeatherDisplay:10.37,2013-03-10 21:50:00,
2013-03-10 17:00:00,51.0,48.8,29.77,NW,309,7.0,16.0,92,0.05,RA,,0.32,0.0,WeatherDisplay:10.37,2013-03-10 22:00:00,
2013-03-10 17:10:00,51.0,48.8,29.77,NW,317,6.0,13.0,92,0.03,RA,,0.34,0.0,WeatherDisplay:10.37,2013-03-10 22:10:00,
2013-03-10 17:20:00,50.9,48.7,29.76,NNW,327,6.0,13.0,92,0.02,RA,,0.36,0.0,WeatherDisplay:10.37,2013-03-10 22:20:00,
2013-03-10 17:30:00,50.9,48.7,29.77,NW,322,3.0,8.0,92,0.02,RA,,0.38,0.0,WeatherDisplay:10.37,2013-03-10 22:30:00,
2013-03-10 17:40:00,50.9,48.9,29.78,NW,317,3.0,9.0,93,0.03,RA,,0.41,0.0,WeatherDisplay:10.37,2013-03-10 22:40:00,
2013-03-10 17:50:00,50.8,48.8,29.78,NW,324,2.0,7.0,93,0.04,RA,,0.45,0.0,WeatherDisplay:10.37,2013-03-10 22:50:00,
2013-03-10 18:00:00,50.7,48.7,29.78,NNW,332,0.0,2.0,93,0.03,RA,,0.48,0.0,WeatherDisplay:10.37,2013-03-10 23:00:00,
2013-03-10 18:10:00,50.8,49.1,29.76,NE,54,1.0,3.0,94,0.03,RA,,0.51,0.0,WeatherDisplay:10.37,2013-03-10 23:10:00,
2013-03-10 18:20:00,50.8,49.1,29.75,East,101,1.0,3.0,94,0.01,RA,,0.52,0.0,WeatherDisplay:10.37,2013-03-10 23:20:00,
2013-03-10 18:30:00,50.6,49.0,29.75,ENE,65,1.0,5.0,94,0.01,RA,,0.53,0.0,WeatherDisplay:10.37,2013-03-10 23:30:00,
2013-03-10 18:40:00,50.6,48.9,29.75,East,90,1.0,5.0,94,0.01,RA,,0.54,0.0,WeatherDisplay:10.37,2013-03-10 23:40:00,
2013-03-10 18:50:00,50.5,48.8,29.74,East,98,3.0,7.0,94,0.00,OVC,,0.54,0.0,WeatherDisplay:10.37,2013-03-10 23:50:00,
2013-03-10 19:00:00,50.4,48.7,29.75,ESE,113,1.0,8.0,94,0.00,OVC,,0.54,0.0,WeatherDisplay:10.37,2013-03-11 00:00:00,
2013-03-10 19:10:00,50.4,49.1,29.78,SSW,194,1.0,3.0,95,0.05,RA,,0.59,0.0,WeatherDisplay:10.37,2013-03-11 00:10:00,
2013-03-10 19:20:00,50.4,49.1,29.76,SE,132,1.0,2.0,95,0.02,RA,,0.61,0.0,WeatherDisplay:10.37,2013-03-11 00:20:00,
2013-03-10 19:30:00,50.4,49.0,29.77,ESE,123,1.0,3.0,95,0.01,RA,,0.62,0.0,WeatherDisplay:10.37,2013-03-11 00:30:00,
2013-03-10 19:40:00,50.5,49.1,29.76,East,96,1.0,4.0,95,0.03,RA,,0.65,0.0,WeatherDisplay:10.37,2013-03-11 00:40:00,
2013-03-10 19:50:00,50.5,49.1,29.78,ESE,123,1.0,5.0,95,0.00,OVC,,0.65,0.0,WeatherDisplay:10.37,2013-03-11 00:50:00,
2013-03-10 20:00:00,50.4,49.0,29.77,SE,127,2.0,5.0,95,0.01,RA,,0.66,0.0,WeatherDisplay:10.37,2013-03-11 01:00:00,
2013-03-10 20:10:00,50.4,49.0,29.76,ESE,110,2.0,4.0,95,0.00,OVC,,0.66,0.0,WeatherDisplay:10.37,2013-03-11 01:10:00,
2013-03-10 20:20:00,50.4,49.0,29.76,ESE,110,2.0,6.0,95,0.00,OVC,,0.66,0.0,WeatherDisplay:10.37,2013-03-11 01:20:00,
2013-03-10 20:30:00,50.4,49.0,29.76,SE,125,2.0,5.0,95,0.00,OVC,,0.66,0.0,WeatherDisplay:10.37,2013-03-11 01:30:00,
2013-03-10 20:40:00,50.5,49.4,29.75,ESE,118,1.0,4.0,96,0.00,OVC,,0.66,0.0,WeatherDisplay:10.37,2013-03-11 01:40:00,
2013-03-10 20:50:00,50.4,49.0,29.76,SE,141,1.0,6.0,95,0.00,OVC,,0.66,0.0,WeatherDisplay:10.37,2013-03-11 01:50:00,
2013-03-10 21:00:00,50.4,49.3,29.77,SE,146,2.0,3.0,96,0.00,OVC,,0.66,0.0,WeatherDisplay:10.37,2013-03-11 02:00:00,
2013-03-10 21:10:00,50.2,48.8,29.78,SSE,160,2.0,4.0,95,0.00,OVC,,0.66,0.0,WeatherDisplay:10.37,2013-03-11 02:10:00,
2013-03-10 21:20:00,50.3,49.2,29.78,SSE,148,2.0,3.0,96,0.00,OVC,,0.66,0.0,WeatherDisplay:10.37,2013-03-11 02:20:00,
2013-03-10 21:30:00,50.3,49.2,29.76,SE,137,1.0,3.0,96,0.00,OVC,,0.66,0.0,WeatherDisplay:10.37,2013-03-11 02:30:00,
2013-03-10 21:40:00,50.3,49.2,29.76,SE,137,0.0,2.0,96,0.00,OVC,,0.66,0.0,WeatherDisplay:10.37,2013-03-11 02:40:00,
2013-03-10 21:50:00,50.2,49.1,29.77,South,179,1.0,2.0,96,0.00,OVC,,0.66,0.0,WeatherDisplay:10.37,2013-03-11 02:50:00,
2013-03-10 22:00:00,50.2,49.1,29.76,South,175,0.0,3.0,96,0.00,OVC,,0.66,0.0,WeatherDisplay:10.37,2013-03-11 03:00:00,
2013-03-10 22:10:00,50.1,49.0,29.76,South,191,1.0,2.0,96,0.00,OVC,,0.66,0.0,WeatherDisplay:10.37,2013-03-11 03:10:00,
2013-03-10 22:20:00,50.2,49.1,29.77,SSW,204,2.0,4.0,96,0.00,OVC,,0.66,0.0,WeatherDisplay:10.37,2013-03-11 03:20:00,
2013-03-10 22:30:00,50.4,49.4,29.78,SW,215,5.0,6.0,96,0.00,OVC,,0.66,0.0,WeatherDisplay:10.37,2013-03-11 03:30:00,
2013-03-10 22:40:00,50.9,50.1,29.78,SSW,200,6.0,9.0,97,0.00,OVC,,0.66,0.0,WeatherDisplay:10.37,2013-03-11 03:40:00,
2013-03-10 22:50:00,51.1,50.0,29.77,SSW,199,3.0,5.0,96,0.00,OVC,,0.66,0.0,WeatherDisplay:10.37,2013-03-11 03:50:00,
2013-03-10 23:00:00,51.0,49.9,29.77,SSW,196,5.0,9.0,96,0.00,OVC,,0.66,0.0,WeatherDisplay:10.37,2013-03-11 04:00:00,
2013-03-10 23:10:00,51.0,49.9,29.77,SSW,202,6.0,9.0,96,0.00,OVC,,0.66,0.0,WeatherDisplay:10.37,2013-03-11 04:10:00,
2013-03-10 23:20:00,51.0,49.9,29.76,SW,218,6.0,9.0,96,0.00,OVC,,0.66,0.0,WeatherDisplay:10.37,2013-03-11 04:20:00,
2013-03-10 23:30:00,51.4,50.3,29.77,SW,220,8.0,12.0,96,0.00,OVC,,0.66,0.0,WeatherDisplay:10.37,2013-03-11 04:30:00,
2013-03-10 23:40:00,51.6,50.2,29.77,SW,215,5.0,12.0,95,0.00,OVC,,0.66,0.0,WeatherDisplay:10.37,2013-03-11 04:40:00,
2013-03-10 23:50:00,51.6,50.2,29.76,SSW,196,3.0,6.0,95,0.00,OVC,,0.66,0.0,WeatherDisplay:10.37,2013-03-11 04:50:00,